TimeEET,TemperatureF,Dew PointF,Humidity,Sea Level PressureIn,VisibilityMPH,Wind Direction,Wind SpeedMPH,Gust SpeedMPH,PrecipitationIn,Events,Conditions,WindDirDegrees,DateUTC
12:20 AM,51.8,42.8,71,29.68,6.2,NNW,11.5,-,N/A,,Scattered Clouds,330,2012-12-10 22:20:00
12:50 AM,51.8,42.8,71,29.68,6.2,NNW,10.4,-,N/A,,Scattered Clouds,330,2012-12-10 22:50:00
1:20 AM,51.8,42.8,71,29.71,6.2,NNW,11.5,-,N/A,,Scattered Clouds,330,2012-12-10 23:20:00
1:50 AM,51.8,41.0,67,29.71,6.2,NW,9.2,-,N/A,,Scattered Clouds,320,2012-12-10 23:50:00
2:00 AM,51,40,56,29.72,12,NW,9.2,,,,Partly Cloudy,320,2012-12-11 00:00:00
2:20 AM,51.8,39.2,62,29.74,6.2,NW,9.2,-,N/A,,Scattered Clouds,310,2012-12-11 00:20:00
2:50 AM,50.0,39.2,66,29.74,6.2,NW,8.1,-,N/A,,Scattered Clouds,320,2012-12-11 00:50:00
3:20 AM,48.2,41.0,76,29.74,6.2,NNW,9.2,-,N/A,,Scattered Clouds,330,2012-12-11 01:20:00
3:50 AM,50.0,39.2,66,29.74,6.2,NW,9.2,-,N/A,,Scattered Clouds,310,2012-12-11 01:50:00
4:20 AM,48.2,39.2,71,29.77,6.2,NW,11.5,-,N/A,,Scattered Clouds,320,2012-12-11 02:20:00
4:50 AM,50.0,37.4,62,29.77,6.2,WNW,10.4,-,N/A,,Scattered Clouds,300,2012-12-11 02:50:00
5:20 AM,51.8,37.4,58,29.80,6.2,NW,6.9,-,N/A,,Partly Cloudy,320,2012-12-11 03:20:00
5:50 AM,51.8,37.4,58,29.83,-9999.0,NW,11.5,-,N/A,,Clear,310,2012-12-11 03:50:00
6:20 AM,51.8,35.6,54,29.83,-9999.0,NW,13.8,-,N/A,,Clear,310,2012-12-11 04:20:00
6:50 AM,51.8,35.6,54,29.83,-9999.0,NW,12.7,-,N/A,,Clear,310,2012-12-11 04:50:00
7:20 AM,50.0,35.6,58,29.86,-9999.0,WNW,10.4,-,N/A,,Clear,300,2012-12-11 05:20:00
7:50 AM,51.8,33.8,50,29.89,-9999.0,WNW,12.7,-,N/A,,Clear,290,2012-12-11 05:50:00
8:00 AM,52,34,38,29.87,6,WNW,12.7,,,,,290,2012-12-11 06:00:00
8:20 AM,53.6,33.8,47,29.89,-9999.0,WNW,12.7,-,N/A,,Clear,290,2012-12-11 06:20:00
8:50 AM,55.4,33.8,44,29.89,-9999.0,NW,13.8,-,N/A,,Clear,310,2012-12-11 06:50:00
9:20 AM,55.4,35.6,47,29.92,-9999.0,WNW,15.0,-,N/A,,Clear,290,2012-12-11 07:20:00
9:50 AM,57.2,33.8,41,29.92,-9999.0,WNW,12.7,-,N/A,,Clear,290,2012-12-11 07:50:00
10:20 AM,57.2,32.0,38,29.92,-9999.0,NW,15.0,-,N/A,,Clear,310,2012-12-11 08:20:00
10:50 AM,59.0,33.8,39,29.92,-9999.0,NW,16.1,-,N/A,,Clear,320,2012-12-11 08:50:00
11:20 AM,59.0,33.8,39,29.92,6.2,NNW,15.0,-,N/A,,Partly Cloudy,330,2012-12-11 09:20:00
11:50 AM,60.8,35.6,39,29.92,6.2,NNW,16.1,-,N/A,,Partly Cloudy,340,2012-12-11 09:50:00
12:20 PM,60.8,33.8,36,29.89,6.2,NNW,13.8,-,N/A,,Partly Cloudy,340,2012-12-11 10:20:00
12:50 PM,60.8,33.8,36,29.89,6.2,NNW,11.5,-,N/A,,Partly Cloudy,340,2012-12-11 10:50:00
1:20 PM,60.8,32.0,34,29.89,6.2,North,11.5,-,N/A,,Partly Cloudy,350,2012-12-11 11:20:00
1:50 PM,60.8,35.6,39,29.89,6.2,North,5.8,-,N/A,,Partly Cloudy,10,2012-12-11 11:50:00
2:00 PM,61,36,27,29.90,6,North,5.8,,,,Scattered Clouds,10,2012-12-11 12:00:00
2:20 PM,62.6,33.8,34,29.92,6.2,Variable,3.5,-,N/A,,Partly Cloudy,0,2012-12-11 12:20:00
2:50 PM,62.6,33.8,34,29.92,6.2,Variable,2.3,-,N/A,,Partly Cloudy,0,2012-12-11 12:50:00
3:20 PM,62.6,30.2,30,29.92,6.2,SW,3.5,-,N/A,,Partly Cloudy,230,2012-12-11 13:20:00
3:50 PM,60.8,41.0,48,29.92,6.2,South,4.6,-,N/A,,Partly Cloudy,190,2012-12-11 13:50:00
4:20 PM,55.4,41.0,58,29.92,6.2,SSW,5.8,-,N/A,,Partly Cloudy,210,2012-12-11 14:20:00
4:50 PM,51.8,41.0,67,29.95,6.2,SSW,3.5,-,N/A,,Partly Cloudy,210,2012-12-11 14:50:00
5:20 PM,51.8,42.8,71,29.95,6.2,SSW,3.5,-,N/A,,Partly Cloudy,200,2012-12-11 15:20:00
5:50 PM,50.0,42.8,76,29.95,6.2,Calm,Calm,-,N/A,,Partly Cloudy,0,2012-12-11 15:50:00
6:20 PM,48.2,42.8,82,29.95,6.2,North,4.6,-,N/A,,Partly Cloudy,350,2012-12-11 16:20:00
6:50 PM,48.2,42.8,82,29.95,6.2,North,4.6,-,N/A,,Partly Cloudy,350,2012-12-11 16:50:00
7:20 PM,46.4,42.8,87,29.98,6.2,North,3.5,-,N/A,,Partly Cloudy,350,2012-12-11 17:20:00
7:50 PM,46.4,42.8,87,29.98,6.2,North,5.8,-,N/A,,Partly Cloudy,350,2012-12-11 17:50:00
8:00 PM,46,42,80,29.98,6,North,5.8,,,,Scattered Clouds,350,2012-12-11 18:00:00
8:20 PM,46.4,42.8,87,29.98,6.2,NNW,4.6,-,N/A,,Partly Cloudy,340,2012-12-11 18:20:00
8:50 PM,44.6,41.0,87,30.01,6.2,NNW,4.6,-,N/A,,Partly Cloudy,340,2012-12-11 18:50:00
9:20 PM,44.6,41.0,87,30.01,6.2,North,8.1,-,N/A,,Partly Cloudy,350,2012-12-11 19:20:00
9:50 PM,44.6,41.0,87,30.01,6.2,North,5.8,-,N/A,,Partly Cloudy,350,2012-12-11 19:50:00
10:20 PM,44.6,41.0,87,30.01,6.2,North,6.9,-,N/A,,Scattered Clouds,350,2012-12-11 20:20:00
10:50 PM,46.4,41.0,81,30.01,6.2,NNW,5.8,-,N/A,,Scattered Clouds,330,2012-12-11 20:50:00
11:20 PM,46.4,41.0,81,30.01,6.2,North,6.9,-,N/A,,Scattered Clouds,350,2012-12-11 21:20:00
11:50 PM,46.4,41.0,81,30.01,6.2,NNW,4.6,-,N/A,,Scattered Clouds,330,2012-12-11 21:50:00